Glenwood, MN

12:24 PM CST on February 21, 2017 (GMT -0600)
Glenwood Municipal

Weather History for KGHW - September, 2013

Change the Weather History Date:

Monday, September 9, 2013

  Actual Average Record
Temperature  
Mean Temperature 72 °F -  
Max Temperature 82 °F 73 °F 93 °F (1961)
Min Temperature 62 °F 50 °F 37 °F (1976)
Cooling Degree Days 7    
Growing Degree Days 22 (Base 50)    
Moisture  
Dew Point 66 °F    
Average Humidity 87    
Maximum Humidity 100    
Minimum Humidity 70    
Precipitation  
Precipitation 0.01 in - - ()
Sea Level Pressure  
Sea Level Pressure 29.75 in    
Wind  
Wind Speed 8 mph (South)    
Max Wind Speed 17 mph    
Max Gust Speed 21 mph    
Visibility 7 miles    
Events Fog , Rain , Thunderstorm    
Averages and records for this station are not official NWS values.
T = Trace of Precipitation, MM = Missing Value Source: NWS Daily Summary

Daily Weather History Graph

Daily Weather History Graph

Search for Another Location

Airport or City:

Trip Planner

Search our weather history database for the weather conditions in past years. The results will help you decide how hot, cold, wet, or windy it might be!

Date:

Astronomy

Sep. 09, 2013 Rise Set
Actual Time 6:52 AM CDT 7:43 PM CDT
Civil Twilight 6:22 AM CDT 8:13 PM CDT
Nautical Twilight 5:46 AM CDT 8:49 PM CDT
Astronomical Twilight 5:08 AM CDT 9:26 PM CDT
Moon 11:30 AM CDT (9/9) 9:44 PM CDT (9/9)
Length of Visible Light 13h 51m
Length of Day
12h 50m
Waxing Crescent, 19% of the Moon is Illuminated
Sep 9
Waxing Crescent
Sep 12
First Quarter
Sep 19
Full
Sep 26
Last Quarter
Oct 4
New

Hourly Weather History & Observations

Time (CDT) Temp. Heat Index Dew Point Humidity Pressure Visibility Wind Dir Wind Speed Gust Speed Precip Events Conditions
12:13 AM 62.6 °F - 59.0 °F 88% 29.88 in 10.0 mi East 5.8 mph - N/A   Clear
12:33 AM 62.6 °F - 59.0 °F 88% 29.88 in 10.0 mi East 5.8 mph - N/A   Scattered Clouds
12:53 AM 62.6 °F - 59.0 °F 88% 29.88 in 10.0 mi East 6.9 mph - N/A   Clear
1:14 AM 62.6 °F - 59.0 °F 88% 29.87 in 10.0 mi East 4.6 mph - N/A   Scattered Clouds
1:33 AM 62.6 °F - 59.0 °F 88% 29.87 in 10.0 mi ESE 6.9 mph - N/A   Mostly Cloudy
1:53 AM 62.6 °F - 59.0 °F 88% 29.85 in 10.0 mi ESE 6.9 mph - N/A   Overcast
2:13 AM 62.6 °F - 59.0 °F 88% 29.82 in 10.0 mi East 8.1 mph - N/A   Mostly Cloudy
2:33 AM 62.6 °F - 60.8 °F 94% 29.81 in 10.0 mi ESE 8.1 mph - N/A   Scattered Clouds
2:54 AM 62.6 °F - 60.8 °F 94% 29.82 in 10.0 mi ESE 5.8 mph - N/A   Mostly Cloudy
3:13 AM 64.4 °F - 60.8 °F 88% 29.82 in 10.0 mi ESE 8.1 mph - N/A   Scattered Clouds
3:33 AM 64.4 °F - 62.6 °F 94% 29.80 in 10.0 mi ESE 6.9 mph - N/A   Mostly Cloudy
3:54 AM 64.4 °F - 64.4 °F 100% 29.80 in 5.0 mi ESE 8.1 mph - N/A   Mostly Cloudy
4:13 AM 66.2 °F - 64.4 °F 94% 29.80 in 4.0 mi ESE 6.9 mph - N/A   Overcast
4:33 AM 66.2 °F - 64.4 °F 94% 29.78 in 4.0 mi ESE 11.5 mph - N/A Thunderstorm Overcast
4:53 AM 66.2 °F - 64.4 °F 94% 29.78 in 4.0 mi East 10.4 mph 16.1 mph N/A Rain , Thunderstorm Rain
5:13 AM 66.2 °F - 64.4 °F 94% 29.76 in 4.0 mi ESE 13.8 mph - 0.01 in Rain , Thunderstorm Light Thunderstorms and Rain
5:33 AM 66.2 °F - 66.2 °F 100% 29.74 in 4.0 mi ESE 12.7 mph - 0.01 in Rain Light Rain
5:53 AM 66.2 °F - 66.2 °F 100% 29.74 in 4.0 mi SE 11.5 mph 19.6 mph 0.01 in Thunderstorm Overcast
6:13 AM 66.2 °F - 66.2 °F 100% 29.77 in 5.0 mi Calm Calm - N/A   Overcast
6:34 AM 68.0 °F - 66.2 °F 94% 29.77 in 4.0 mi South 4.6 mph - N/A Thunderstorm Mostly Cloudy
6:53 AM 68.0 °F - 66.2 °F 94% 29.79 in 4.0 mi NW 9.2 mph - N/A   Overcast
7:13 AM 66.2 °F - 66.2 °F 100% 29.78 in 5.0 mi North 8.1 mph - N/A   Overcast
7:34 AM 66.2 °F - 66.2 °F 100% 29.76 in 5.0 mi NE 6.9 mph - N/A   Overcast
7:53 AM 66.2 °F - 66.2 °F 100% 29.76 in 5.0 mi NE 5.8 mph - N/A   Overcast
8:13 AM 66.2 °F - 66.2 °F 100% 29.75 in 3.0 mi ENE 9.2 mph - N/A   Overcast
8:33 AM 66.2 °F - 64.4 °F 94% 29.74 in 3.0 mi East 9.2 mph - N/A   Overcast
8:53 AM 66.2 °F - 64.4 °F 94% 29.73 in 3.0 mi East 9.2 mph - N/A   Overcast
9:14 AM 66.2 °F - 64.4 °F 94% 29.73 in 2.0 mi East 10.4 mph - N/A   Overcast
9:33 AM 66.2 °F - 64.4 °F 94% 29.72 in 1.0 mi East 11.5 mph - N/A   Overcast
9:53 AM 66.2 °F - 66.2 °F 100% 29.73 in 0.8 mi East 10.4 mph - N/A   Overcast
10:14 AM 66.2 °F - 66.2 °F 100% 29.71 in 0.5 mi ESE 10.4 mph - N/A Fog Fog
10:33 AM 66.2 °F - 66.2 °F 100% 29.73 in 0.5 mi SE 3.5 mph - N/A Fog Fog
10:53 AM 68.0 °F - 66.2 °F 94% 29.72 in 0.2 mi SE 9.2 mph - N/A Fog Fog
11:13 AM 69.8 °F - 68.0 °F 94% 29.72 in 0.2 mi SSE 8.1 mph - N/A Fog Fog
11:33 AM 69.8 °F - 68.0 °F 94% 29.71 in 1.0 mi SSE 9.2 mph - N/A   Overcast
11:54 AM 69.8 °F - 69.8 °F 100% 29.71 in 1.8 mi SSE 9.2 mph - N/A   Overcast
12:13 PM 69.8 °F - 69.8 °F 100% 29.70 in 2.5 mi SSE 9.2 mph - N/A   Overcast
12:33 PM 71.6 °F - 69.8 °F 94% 29.69 in 4.0 mi SSE 10.4 mph - N/A   Overcast
12:53 PM 73.4 °F - 69.8 °F 88% 29.68 in 4.0 mi SSE 11.5 mph - N/A   Mostly Cloudy
1:13 PM 75.2 °F - 69.8 °F 83% 29.68 in 5.0 mi South 8.1 mph - N/A   Haze
1:34 PM 78.8 °F - 69.8 °F 74% 29.68 in 7.0 mi South 6.9 mph - N/A   Scattered Clouds
1:53 PM 77.0 °F - 69.8 °F 78% 29.67 in 7.0 mi SSE 6.9 mph - N/A   Scattered Clouds
2:13 PM 78.8 °F - 69.8 °F 74% 29.68 in 7.0 mi SSW 9.2 mph - N/A   Clear
2:34 PM 78.8 °F - 69.8 °F 74% 29.68 in 7.0 mi SW 8.1 mph - N/A   Scattered Clouds
2:53 PM 82.4 °F 87.2 °F 71.6 °F 70% 29.68 in 10.0 mi SSW 9.2 mph - N/A   Scattered Clouds
3:13 PM 82.4 °F 87.2 °F 71.6 °F 70% 29.67 in 10.0 mi West 9.2 mph - N/A   Scattered Clouds
3:33 PM 82.4 °F 87.2 °F 71.6 °F 70% 29.68 in 10.0 mi West 10.4 mph - N/A   Scattered Clouds
3:53 PM 82.4 °F 87.2 °F 71.6 °F 70% 29.68 in 10.0 mi West 9.2 mph - N/A   Clear
4:14 PM 82.4 °F 87.2 °F 71.6 °F 70% 29.68 in 10.0 mi West 8.1 mph - N/A   Clear
4:33 PM 80.6 °F 84.6 °F 71.6 °F 74% 29.69 in 7.0 mi West 8.1 mph - N/A   Scattered Clouds
4:53 PM 80.6 °F 84.6 °F 71.6 °F 74% 29.69 in 10.0 mi West 4.6 mph - N/A   Clear
5:13 PM 80.6 °F 84.6 °F 71.6 °F 74% 29.70 in 10.0 mi WSW 5.8 mph - N/A   Clear
5:33 PM 80.6 °F 84.6 °F 71.6 °F 74% 29.70 in 10.0 mi West 4.6 mph - N/A   Clear
5:54 PM 80.6 °F 84.6 °F 71.6 °F 74% 29.71 in 10.0 mi WNW 9.2 mph - N/A   Scattered Clouds
6:13 PM 80.6 °F 84.6 °F 71.6 °F 74% 29.71 in 7.0 mi WNW 6.9 mph - N/A   Scattered Clouds
6:33 PM 78.8 °F - 71.6 °F 78% 29.71 in 7.0 mi West 8.1 mph - N/A   Clear
6:53 PM 78.8 °F - 71.6 °F 78% 29.72 in 7.0 mi West 8.1 mph - N/A   Scattered Clouds
7:13 PM 77.0 °F - 68.0 °F 74% 29.73 in 10.0 mi West 11.5 mph - N/A   Scattered Clouds
7:34 PM 75.2 °F - 66.2 °F 73% 29.74 in 10.0 mi West 12.7 mph 18.4 mph N/A   Clear
7:53 PM 73.4 °F - 66.2 °F 78% 29.74 in 10.0 mi West 12.7 mph 18.4 mph N/A   Clear
8:13 PM 73.4 °F - 66.2 °F 78% 29.76 in 10.0 mi West 17.3 mph 20.7 mph N/A   Clear
8:33 PM 71.6 °F - 64.4 °F 78% 29.77 in 10.0 mi West 15.0 mph 19.6 mph N/A   Clear
8:53 PM 71.6 °F - 64.4 °F 78% 29.77 in 10.0 mi West 11.5 mph - N/A   Clear
9:14 PM 69.8 °F - 64.4 °F 83% 29.78 in 10.0 mi West 10.4 mph - N/A   Clear
9:33 PM 69.8 °F - 64.4 °F 83% 29.79 in 10.0 mi West 12.7 mph - N/A   Clear
9:53 PM 69.8 °F - 64.4 °F 83% 29.79 in 10.0 mi West 9.2 mph - N/A   Clear
10:14 PM 69.8 °F - 64.4 °F 83% 29.80 in 10.0 mi West 9.2 mph - N/A   Clear
10:33 PM 69.8 °F - 64.4 °F 83% 29.81 in 10.0 mi West 10.4 mph - N/A   Clear
10:53 PM 69.8 °F - 64.4 °F 83% 29.81 in 10.0 mi West 11.5 mph - N/A   Clear
11:13 PM 68.0 °F - 64.4 °F 88% 29.81 in 10.0 mi West 11.5 mph - N/A   Clear
11:33 PM 68.0 °F - 64.4 °F 88% 29.80 in 10.0 mi WNW 10.4 mph - N/A   Scattered Clouds
11:54 PM 68.0 °F - 64.4 °F 88% 29.80 in 10.0 mi WNW 15.0 mph - N/A   Scattered Clouds